OETF

Details ICAO OETF (TIF)
Name TAIF
Region Saudi Arabia
Timezone Asia/Riyadh (UTC+3.0)
Plans Departing 36
Arriving 39
Stats Elevation 4,848 ft / 1,478 m (AMSL)
Location 21.486611° 40.540617°
Runways 2
Magnetic Variation 3.383° E
Sunrise 2018-05-20 02:39:05 UTC / 2018-05-20 05:39:05 Local
Sunset 2018-05-20 15:52:28 UTC / 2018-05-20 18:52:28 Local
Advertisement - Login to hide

Runways

ID Width Length Bearing (true) Bearing (mag) Surface Threshold Offset Overrun Length
07 148 ft / 45 m 12,279 ft / 3,743 m 74.58° 71.20° Asphalt 0 ft / 0 m 960 ft / 293 m
17 148 ft / 45 m 11,051 ft / 3,368 m 172.15° 168.77° Asphalt 0 ft / 0 m 380 ft / 116 m
25 148 ft / 45 m 12,279 ft / 3,743 m 254.59° 251.21° Asphalt 0 ft / 0 m 400 ft / 122 m
35 148 ft / 45 m 11,051 ft / 3,368 m 352.15° 348.77° Asphalt 0 ft / 0 m 322 ft / 98 m

Map

Weather


0- 5 10 15 20 25 30 35+ Temperature / ° C

Clouds and Precipitation
Forecast for 2018-05-20 12:00 UTC. Updated 3 hours ago

Ground ~20,000 ft ~40,000 ft Winds

METAR

OETF 201400Z 26016KT 9000 - TSRA FEW025CB BKN030 23/17 Q1017 NOSIG

TAF

Not found

Frequencies

Ground 121.90 MHz GND
Tower 118.70 MHz TWR
Tower 131.50 MHz SAUDIA RDO
Approach 119.70 MHz APP
Warning: Do not use this data for real-world aviation or navigation. No guarantee of current accuracy is given.